Weather History for Aurora, IL

Change the Weather History Date:

Sunday, March 30, 2014

  Actual Average Record
Temperature  
Mean Temperature 39 °F 43 °F  
Max Temperature 56 °F 54 °F 76 °F (2005)
Min Temperature 22 °F 32 °F 22 °F (2000)
Degree Days  
Heating Degree Days 26 22  
Month to date heating degree days 1068 848  
Since 1 July heating degree days 6644 5986  
Cooling Degree Days 0 0  
Month to date cooling degree days 0 0  
Year to date cooling degree days 0 0  
Moisture  
Dew Point 28 °F    
Average Humidity 66    
Maximum Humidity 88    
Minimum Humidity 43    
Precipitation  
Precipitation 0.00 in 0.07 in 0.48 in (2012)
Month to date precipitation 0.72 2.15  
Year to date precipitation 2.57 5.24  
Sea Level Pressure  
Sea Level Pressure 30.18 in    
Wind  
Wind Speed 8 mph (SSE)    
Max Wind Speed 18 mph    
Max Gust Speed 23 mph    
Visibility 10 miles    
Events      
T = Trace of Precipitation, MM = Missing Value Source: NWS Daily Summary

Daily Weather History Graph

Daily Weather History Graph

Search for Another Location

Airport:

Trip Planner

Search our weather history database for the weather conditions in past years. The results will help you decide how hot, cold, wet, or windy it might be!

Date:

Astronomy

Mar. 30, 2014 Rise Set
Actual Time 6:40 AM CDT 7:17 PM CDT
Civil Twilight 6:12 AM CDT 7:45 PM CDT
Nautical Twilight 5:39 AM CDT 8:18 PM CDT
Astronomical Twilight 5:05 AM CDT 8:52 PM CDT
Moon 6:25 AM CDT (3/30) 7:30 PM CDT (3/30)
Length of Visible Light 13h 33m
Length of Day
12h 37m
Waning Crescent, 0% of the Moon is Illuminated
Mar 30
Waning Crescent
Mar 30
New
Apr 7
First Quarter
Apr 15
Full
Apr 22
Last Quarter

Hourly Weather History & Observations

Time (CDT) Temp. Windchill Dew Point Humidity Pressure Visibility Wind Dir Wind Speed Gust Speed Precip Events Conditions
12:52 AM 27.0 °F - 21.9 °F 81% 30.27 in 10.0 mi Calm Calm - N/A   Clear
1:52 AM 26.1 °F 19.4 °F 21.0 °F 81% 30.29 in 10.0 mi West 5.8 mph - N/A   Clear
2:52 AM 25.0 °F - 21.0 °F 85% 30.27 in 10.0 mi Calm Calm - N/A   Clear
3:52 AM 26.1 °F - 21.9 °F 84% 30.26 in 10.0 mi Calm Calm - N/A   Clear
4:52 AM 24.1 °F - 21.0 °F 88% 30.23 in 9.0 mi Calm Calm - N/A   Clear
5:52 AM 24.1 °F 19.7 °F 19.9 °F 84% 30.25 in 9.0 mi ESE 3.5 mph - N/A   Clear
6:52 AM 23.0 °F - 19.9 °F 88% 30.26 in 7.0 mi Calm Calm - N/A   Clear
7:52 AM 30.0 °F - 23.0 °F 75% 30.28 in 9.0 mi Calm Calm - N/A   Clear
8:52 AM 35.1 °F 31.0 °F 24.1 °F 64% 30.26 in 10.0 mi SSE 4.6 mph - N/A   Clear
9:52 AM 39.0 °F 34.0 °F 24.1 °F 55% 30.27 in 10.0 mi South 6.9 mph - N/A   Clear
10:52 AM 43.0 °F 38.2 °F 26.1 °F 51% 30.25 in 10.0 mi South 8.1 mph - N/A   Clear
11:52 AM 45.0 °F 39.7 °F 28.0 °F 52% 30.22 in 10.0 mi South 10.4 mph - N/A   Clear
12:52 PM 48.9 °F - 28.9 °F 46% 30.21 in 10.0 mi SSE 11.5 mph - N/A   Clear
1:52 PM 51.1 °F - 30.9 °F 46% 30.17 in 10.0 mi South 15.0 mph 19.6 mph N/A   Clear
2:52 PM 53.1 °F - 32.0 °F 45% 30.13 in 10.0 mi South 11.5 mph - N/A   Clear
3:52 PM 55.0 °F - 34.0 °F 45% 30.12 in 10.0 mi South 12.7 mph 21.9 mph N/A   Clear
4:52 PM 55.9 °F - 34.0 °F 44% 30.10 in 10.0 mi South 13.8 mph - N/A   Clear
5:52 PM 55.0 °F - 35.1 °F 47% 30.09 in 10.0 mi South 15.0 mph - N/A   Clear
6:52 PM 51.1 °F - 36.0 °F 56% 30.06 in 9.0 mi SSE 11.5 mph - N/A   Clear
7:52 PM 48.0 °F - 36.0 °F 63% 30.06 in 10.0 mi SSE 9.2 mph - N/A   Clear
8:52 PM 46.9 °F - 35.1 °F 63% 30.06 in 10.0 mi SSE 8.1 mph - N/A   Clear
9:52 PM 46.0 °F 41.0 °F 35.1 °F 66% 30.06 in 10.0 mi SSE 10.4 mph - N/A   Clear
10:52 PM 44.1 °F 38.1 °F 34.0 °F 68% 30.05 in 10.0 mi SSE 11.5 mph - N/A   Clear
11:52 PM 43.0 °F 37.7 °F 34.0 °F 71% 30.05 in 10.0 mi SSE 9.2 mph - N/A   Clear